| time (UTC) | temp F | wind direction | speed knots | gust knots | rain 1hr in | rain 24hr in | rain mn in | humidity % | barometer mb |
| 20260906231752 | 73 | 73 | 0.9 | 1.7 | 0.00 | 0.00 | 0.00 | 61 | 1014.5 |
| 20260906231247 | 73 | 72 | 1.7 | 4.3 | 0.00 | 0.00 | 0.00 | 61 | 1014.9 |
| 20260906230746 | 74 | 69 | 0.9 | 6.1 | 0.00 | 0.00 | 0.00 | 62 | 1014.6 |
| 20260906230241 | 74 | 64 | 0.9 | 1.7 | 0.00 | 0.00 | 0.00 | 62 | 1014.9 |
| 20260906225739 | 74 | 51 | 0.9 | 2.6 | 0.00 | 0.00 | 0.00 | 62 | 1014.6 |
| 20260906225236 | 74 | 18 | 0.9 | 2.6 | 0.00 | 0.00 | 0.00 | 61 | 1014.7 |
| 20260906224731 | 74 | 59 | 0.9 | 2.6 | 0.00 | 0.00 | 0.00 | 61 | 1015.0 |
| 20260906224227 | 75 | 56 | 2.6 | 6.1 | 0.00 | 0.00 | 0.00 | 61 | 1015.0 |
| 20260906223724 | 75 | 73 | 2.6 | 4.3 | 0.00 | 0.00 | 0.00 | 61 | 1014.8 |
| 20260906223219 | 75 | 89 | 3.5 | 6.1 | 0.00 | 0.00 | 0.00 | 60 | 1014.9 |
| 20260906222717 | 76 | 66 | 0.9 | 2.6 | 0.00 | 0.00 | 0.00 | 60 | 1015.2 |
| 20260906222216 | 77 | 22 | 2.6 | 2.6 | 0.00 | 0.00 | 0.00 | 60 | 1014.9 |
| 20260906221714 | 77 | 7 | 2.6 | 4.3 | 0.00 | 0.00 | 0.00 | 60 | 1014.9 |
| 20260906221209 | 77 | 85 | 1.7 | 7.0 | 0.00 | 0.00 | 0.00 | 60 | 1015.1 |
| 20260906220704 | 78 | 100 | 1.7 | 6.1 | 0.00 | 0.00 | 0.00 | 59 | 1015.3 |
| 20260906220159 | 78 | 59 | 1.7 | 2.6 | 0.00 | 0.00 | 0.00 | 59 | 1015.0 |
| 20260906215658 | 78 | 67 | 3.5 | 6.1 | 0.00 | 0.00 | 0.00 | 57 | 1015.3 |
| 20260906215157 | 79 | 88 | 2.6 | 2.6 | 0.00 | 0.00 | 0.00 | 57 | 1015.4 |
| 20260906214655 | 79 | 88 | 1.7 | 2.6 | 0.00 | 0.00 | 0.00 | 58 | 1015.4 |
| 20260906214150 | 79 | 74 | 3.5 | 5.2 | 0.00 | 0.00 | 0.00 | 57 | 1015.6 |
| 20260906213650 | 79 | 81 | 2.6 | 6.1 | 0.00 | 0.00 | 0.00 | 57 | 1015.7 |
| 20260906213144 | 79 | 84 | 2.6 | 5.2 | 0.00 | 0.00 | 0.00 | 58 | 1015.8 |
| 20260906212642 | 80 | 11 | 2.6 | 7.0 | 0.00 | 0.00 | 0.00 | 57 | 1015.5 |
| 20260906212138 | 80 | 104 | 4.3 | 5.2 | 0.00 | 0.00 | 0.00 | 56 | 1015.4 |
| 20260906211637 | 80 | 97 | 0.9 | 2.6 | 0.00 | 0.00 | 0.00 | 57 | 1015.8 |
| 20260906211132 | 80 | 90 | 0.0 | 7.0 | 0.00 | 0.00 | 0.00 | 57 | 1015.8 |
| 20260906210628 | 80 | 43 | 2.6 | 6.1 | 0.00 | 0.00 | 0.00 | 57 | 1015.7 |
| 20260906210123 | 80 | 47 | 1.7 | 5.2 | 0.00 | 0.00 | 0.00 | 58 | 1015.9 |
| 20260906205618 | 80 | 62 | 0.9 | 2.6 | 0.00 | 0.00 | 0.00 | 57 | 1016.0 |
| 20260906205115 | 80 | 52 | 0.9 | 1.7 | 0.00 | 0.00 | 0.00 | 58 | 1015.9 |
| 20260906204613 | 81 | 61 | 0.9 | 5.2 | 0.00 | 0.00 | 0.00 | 56 | 1015.9 |
| 20260906204108 | 81 | 51 | 2.6 | 4.3 | 0.00 | 0.00 | 0.00 | 55 | 1015.8 |
| 20260906203608 | 82 | 90 | 2.6 | 7.0 | 0.00 | 0.00 | 0.00 | 55 | 1015.7 |
| 20260906203103 | 83 | 75 | 0.0 | 2.6 | 0.00 | 0.00 | 0.00 | 55 | 1015.9 |
| 20260906202600 | 83 | 79 | 0.9 | 0.9 | 0.00 | 0.00 | 0.00 | 56 | 1015.8 |
| 20260906202100 | 82 | 108 | 0.9 | 2.6 | 0.00 | 0.00 | 0.00 | 57 | 1015.9 |
| 20260906201600 | 82 | 43 | 2.6 | 9.6 | 0.00 | 0.00 | 0.00 | 55 | 1015.8 |
| 20260906201059 | 82 | 63 | 1.7 | 7.0 | 0.00 | 0.00 | 0.00 | 54 | 1015.6 |
| 20260906200555 | 82 | 72 | 3.5 | 5.2 | 0.00 | 0.00 | 0.00 | 54 | 1015.8 |
| 20260906200051 | 83 | 63 | 1.7 | 1.7 | 0.00 | 0.00 | 0.00 | 54 | 1015.7 |
| 20260906195546 | 82 | 104 | 0.9 | 1.7 | 0.00 | 0.00 | 0.00 | 55 | 1015.9 |
| 20260906195043 | 82 | 107 | 0.0 | 1.7 | 0.00 | 0.00 | 0.00 | 56 | 1015.9 |
| 20260906194538 | 82 | 89 | 1.7 | 2.6 | 0.00 | 0.00 | 0.00 | 57 | 1015.8 |
| 20260906194034 | 82 | 112 | 3.5 | 4.3 | 0.00 | 0.00 | 0.00 | 56 | 1015.6 |
| 20260906193534 | 82 | 96 | 0.9 | 2.6 | 0.00 | 0.00 | 0.00 | 57 | 1015.9 |
| 20260906193029 | 82 | 82 | 1.7 | 6.1 | 0.00 | 0.00 | 0.00 | 57 | 1015.8 |
| 20260906192525 | 81 | 56 | 0.9 | 1.7 | 0.00 | 0.00 | 0.00 | 58 | 1015.9 |
| 20260906192023 | 82 | 50 | 2.6 | 5.2 | 0.00 | 0.00 | 0.00 | 56 | 1016.1 |
| 20260906191519 | 82 | 80 | 0.9 | 2.6 | 0.00 | 0.00 | 0.00 | 58 | 1015.9 |
| 20260906191018 | 82 | 39 | 1.7 | 4.3 | 0.00 | 0.00 | 0.00 | 56 | 1015.9 |
| 20260906190517 | 82 | 88 | 1.7 | 5.2 | 0.00 | 0.00 | 0.00 | 55 | 1016.0 |
| 20260906190013 | 82 | 63 | 2.6 | 5.2 | 0.00 | 0.00 | 0.00 | 56 | 1016.1 |
| 20260906185511 | 82 | 38 | 1.7 | 4.3 | 0.00 | 0.00 | 0.00 | 56 | 1016.0 |
| 20260906185010 | 82 | 86 | 2.6 | 5.2 | 0.00 | 0.00 | 0.00 | 55 | 1016.0 |
| 20260906184506 | 83 | 109 | 0.0 | 1.7 | 0.00 | 0.00 | 0.00 | 58 | 1016.1 |
| 20260906184001 | 82 | 48 | 0.9 | 4.3 | 0.00 | 0.00 | 0.00 | 56 | 1016.2 |
| 20260906183457 | 82 | 79 | 1.7 | 4.3 | 0.00 | 0.00 | 0.00 | 56 | 1016.2 |
| 20260906182952 | 82 | 2 | 3.5 | 4.3 | 0.00 | 0.00 | 0.00 | 56 | 1015.9 |
| 20260906182447 | 82 | 64 | 0.0 | 0.9 | 0.00 | 0.00 | 0.00 | 58 | 1015.9 |
| 20260906181943 | 81 | 85 | 2.6 | 6.1 | 0.00 | 0.00 | 0.00 | 58 | 1016.0 |
| 20260906181439 | 81 | 106 | 1.7 | 4.3 | 0.00 | 0.00 | 0.00 | 59 | 1016.0 |
| 20260906180934 | 82 | 82 | 0.9 | 4.3 | 0.00 | 0.00 | 0.00 | 60 | 1016.1 |
| 20260906180429 | 82 | 54 | 2.6 | 5.2 | 0.00 | 0.00 | 0.00 | 58 | 1016.1 |
| 20260906175927 | 81 | 94 | 0.9 | 1.7 | 0.00 | 0.00 | 0.00 | 61 | 1016.0 |
| 20260906175422 | 81 | 71 | 0.9 | 2.6 | 0.00 | 0.00 | 0.00 | 59 | 1016.2 |
| 20260906174920 | 83 | 93 | 1.7 | 4.3 | 0.00 | 0.00 | 0.00 | 57 | 1016.1 |
| 20260906174420 | 82 | 109 | 1.7 | 4.3 | 0.00 | 0.00 | 0.00 | 58 | 1016.3 |
| 20260906173915 | 82 | 65 | 0.9 | 2.6 | 0.00 | 0.00 | 0.00 | 60 | 1016.3 |
| 20260906173410 | 81 | 40 | 0.9 | 4.3 | 0.00 | 0.00 | 0.00 | 61 | 1016.5 |
| 20260906172909 | 80 | 80 | 0.9 | 4.3 | 0.00 | 0.00 | 0.00 | 62 | 1016.4 |
| 20260906172407 | 80 | 47 | 1.7 | 5.2 | 0.00 | 0.00 | 0.00 | 61 | 1016.5 |
| 20260906171901 | 80 | 46 | 3.5 | 5.2 | 0.00 | 0.00 | 0.00 | 62 | 1016.5 |
| 20260906171356 | 80 | 77 | 0.9 | 6.1 | 0.00 | 0.00 | 0.00 | 65 | 1016.5 |
| 20260906170851 | 80 | 38 | 1.7 | 6.1 | 0.00 | 0.00 | 0.00 | 64 | 1016.6 |
| 20260906170348 | 80 | 62 | 1.7 | 4.3 | 0.00 | 0.00 | 0.00 | 63 | 1016.7 |
| 20260906165844 | 79 | 70 | 0.0 | 6.1 | 0.00 | 0.00 | 0.00 | 66 | 1016.5 |
| 20260906165343 | 79 | 13 | 1.7 | 6.1 | 0.00 | 0.00 | 0.00 | 66 | 1016.8 |
| 20260906164838 | 80 | 69 | 1.7 | 2.6 | 0.00 | 0.00 | 0.00 | 65 | 1016.7 |
| 20260906164337 | 79 | 83 | 2.6 | 2.6 | 0.00 | 0.00 | 0.00 | 67 | 1016.7 |
| 20260906163833 | 81 | 65 | 2.6 | 4.3 | 0.00 | 0.00 | 0.00 | 66 | 1016.8 |
| 20260906163329 | 80 | 78 | 1.7 | 7.8 | 0.00 | 0.00 | 0.00 | 64 | 1016.7 |
| 20260906162826 | 80 | 88 | 2.6 | 6.1 | 0.00 | 0.00 | 0.00 | 66 | 1016.6 |
| 20260906162326 | 79 | 69 | 2.6 | 7.0 | 0.00 | 0.00 | 0.00 | 65 | 1016.5 |
| 20260906161821 | 80 | 83 | 2.6 | 5.2 | 0.00 | 0.00 | 0.00 | 66 | 1016.6 |
| 20260906161320 | 79 | 32 | 1.7 | 6.1 | 0.00 | 0.00 | 0.00 | 68 | 1016.6 |
| 20260906160819 | 80 | 41 | 3.5 | 6.1 | 0.00 | 0.00 | 0.00 | 67 | 1016.8 |
| 20260906160313 | 80 | 33 | 1.7 | 5.2 | 0.00 | 0.00 | 0.00 | 67 | 1016.6 |
| 20260906155811 | 79 | 31 | 0.0 | 2.6 | 0.00 | 0.00 | 0.00 | 69 | 1016.6 |
| 20260906155307 | 80 | 31 | 1.7 | 5.2 | 0.00 | 0.00 | 0.00 | 68 | 1016.5 |
| 20260906154802 | 79 | 31 | 0.9 | 4.3 | 0.00 | 0.00 | 0.00 | 72 | 1016.4 |
| 20260906154256 | 78 | 30 | 2.6 | 6.1 | 0.00 | 0.00 | 0.00 | 72 | 1016.4 |
| 20260906153754 | 78 | 31 | 0.9 | 4.3 | 0.00 | 0.00 | 0.00 | 73 | 1016.4 |
| 20260906153243 | 78 | 31 | 2.6 | 4.3 | 0.00 | 0.00 | 0.00 | 73 | 1016.3 |
| 20260906152739 | 78 | 24 | 4.3 | 6.1 | 0.00 | 0.00 | 0.00 | 71 | 1016.4 |
| 20260906152233 | 78 | 32 | 0.0 | 1.7 | 0.00 | 0.00 | 0.00 | 73 | 1016.4 |
| 20260906151732 | 78 | 34 | 2.6 | 6.1 | 0.00 | 0.00 | 0.00 | 75 | 1016.2 |
| 20260906151228 | 79 | 33 | 1.7 | 4.3 | 0.00 | 0.00 | 0.00 | 73 | 1016.6 |
| 20260906150724 | 78 | 31 | 0.0 | 2.6 | 0.00 | 0.00 | 0.00 | 77 | 1016.2 |
| 20260906150219 | 78 | 32 | 1.7 | 1.7 | 0.00 | 0.00 | 0.00 | 76 | 1016.4 |
| 20260906145718 | 76 | 29 | 1.7 | 4.3 | 0.00 | 0.00 | 0.00 | 78 | 1016.5 |
| 20260906145217 | 76 | 30 | 0.9 | 2.6 | 0.00 | 0.00 | 0.00 | 78 | 1016.3 |
| 20260906144712 | 76 | 31 | 0.9 | 1.7 | 0.00 | 0.00 | 0.00 | 79 | 1016.4 |
| 20260906144207 | 76 | 32 | 0.0 | 4.3 | 0.00 | 0.00 | 0.00 | 79 | 1016.4 |
| 20260906143707 | 76 | 32 | 1.7 | 6.1 | 0.00 | 0.00 | 0.00 | 80 | 1016.4 |
| 20260906143204 | 76 | 36 | 4.3 | 5.2 | 0.00 | 0.00 | 0.00 | 79 | 1016.6 |
| 20260906142703 | 77 | 28 | 2.6 | 2.6 | 0.00 | 0.00 | 0.00 | 80 | 1016.5 |
| 20260906142159 | 77 | 36 | 2.6 | 2.6 | 0.00 | 0.00 | 0.00 | 80 | 1016.4 |
| 20260906141657 | 76 | 30 | 0.0 | 0.9 | 0.00 | 0.00 | 0.00 | 82 | 1016.3 |
| 20260906141152 | 76 | 32 | 0.9 | 2.6 | 0.00 | 0.00 | 0.00 | 82 | 1016.5 |
| 20260906140652 | 76 | 33 | 0.9 | 1.7 | 0.00 | 0.00 | 0.00 | 84 | 1016.5 |
| 20260906140147 | 75 | 29 | 1.7 | 1.7 | 0.00 | 0.00 | 0.00 | 85 | 1016.5 |
| 20260906135644 | 75 | 32 | 0.0 | 1.7 | 0.00 | 0.00 | 0.00 | 85 | 1016.5 |
| 20260906135140 | 74 | 17 | 1.7 | 2.6 | 0.00 | 0.00 | 0.00 | 87 | 1016.3 |
| 20260906134635 | 72 | 32 | 0.9 | 1.7 | 0.00 | 0.00 | 0.00 | 90 | 1016.2 |
| 20260906134130 | 73 | 40 | 3.5 | 4.3 | 0.00 | 0.00 | 0.00 | 90 | 1016.2 |
| 20260906133626 | 72 | 33 | 1.7 | 1.7 | 0.00 | 0.00 | 0.00 | 91 | 1016.4 |
| 20260906133121 | 72 | 35 | 1.7 | 4.3 | 0.00 | 0.00 | 0.00 | 92 | 1016.4 |
| 20260906132616 | 72 | 27 | 0.9 | 1.7 | 0.00 | 0.00 | 0.00 | 92 | 1016.4 |
| 20260906132111 | 71 | 39 | 0.9 | 2.6 | 0.00 | 0.00 | 0.00 | 93 | 1016.0 |
| 20260906131607 | 71 | 33 | 0.9 | 1.7 | 0.00 | 0.00 | 0.00 | 94 | 1016.3 |
| 20260906131102 | 71 | 33 | 0.9 | 1.7 | 0.00 | 0.00 | 0.00 | 95 | 1016.1 |
| 20260906130556 | 70 | 19 | 0.9 | 1.7 | 0.00 | 0.00 | 0.00 | 97 | 1016.2 |
| 20260906130051 | 70 | 25 | 0.9 | 1.7 | 0.00 | 0.00 | 0.00 | 98 | 1016.4 |
| 20260906125548 | 69 | 27 | 0.9 | 1.7 | 0.00 | 0.00 | 0.00 | 99 | 1016.1 |
| 20260906125043 | 69 | 39 | 0.0 | 0.9 | 0.00 | 0.00 | 0.00 | 99 | 1016.2 |
| 20260906124538 | 68 | 25 | 1.7 | 1.7 | 0.00 | 0.00 | 0.00 | 99 | 1016.0 |
| 20260906124033 | 68 | 27 | 0.0 | 0.0 | 0.00 | 0.00 | 0.00 | 99 | 1015.8 |
| 20260906123532 | 68 | 31 | 0.0 | 0.9 | 0.00 | 0.00 | 0.00 | 99 | 1016.1 |
| 20260906123027 | 68 | 27 | 0.0 | 0.0 | 0.00 | 0.00 | 0.00 | 99 | 1016.2 |
| 20260906122521 | 68 | 26 | 0.0 | 0.9 | 0.00 | 0.00 | 0.00 | 99 | 1016.1 |
| 20260906122018 | 68 | 26 | 0.9 | 0.9 | 0.00 | 0.00 | 0.00 | 99 | 1016.0 |
| 20260906121514 | 67 | 27 | 0.0 | 0.0 | 0.00 | 0.00 | 0.00 | 99 | 1015.7 |
| 20260906121009 | 67 | 27 | 0.0 | 0.9 | 0.00 | 0.00 | 0.00 | 99 | 1015.5 |
| 20260906120504 | 67 | 26 | 0.0 | 0.0 | 0.00 | 0.00 | 0.00 | 99 | 1015.7 |
| 20260906120002 | 67 | 27 | 0.0 | 0.0 | 0.00 | 0.00 | 0.00 | 99 | 1015.4 |
| 20260906115456 | 67 | 27 | 0.0 | 0.0 | 0.00 | 0.00 | 0.00 | 99 | 1015.4 |
| 20260906114956 | 67 | 28 | 0.0 | 0.9 | 0.00 | 0.00 | 0.00 | 99 | 1015.4 |
| 20260906114450 | 67 | 29 | 0.0 | 0.0 | 0.00 | 0.00 | 0.00 | 99 | 1015.2 |
| 20260906113947 | 67 | 28 | 0.0 | 0.0 | 0.00 | 0.00 | 0.00 | 99 | 1015.4 |
| 20260906113445 | 67 | 27 | 0.0 | 0.0 | 0.00 | 0.00 | 0.00 | 99 | 1015.1 |
| 20260906112941 | 67 | 28 | 0.0 | 0.0 | 0.00 | 0.00 | 0.00 | 99 | 1015.1 |
| 20260906112436 | 67 | 28 | 0.0 | 0.0 | 0.00 | 0.00 | 0.00 | 99 | 1014.9 |
| 20260906111932 | 67 | 29 | 0.0 | 0.0 | 0.00 | 0.00 | 0.00 | 99 | 1014.9 |
| 20260906111431 | 67 | 114 | 0.0 | 0.0 | 0.00 | 0.00 | 0.00 | 99 | 1014.9 |
| 20260906110926 | 67 | 149 | 0.0 | 0.0 | 0.00 | 0.00 | 0.00 | 99 | 1014.9 |
| 20260906110422 | 67 | 147 | 0.0 | 0.0 | 0.00 | 0.00 | 0.00 | 99 | 1014.9 |
| 20260906105921 | 67 | 148 | 0.0 | 0.0 | 0.00 | 0.00 | 0.00 | 99 | 1014.9 |
| 20260906105417 | 67 | 146 | 0.0 | 0.0 | 0.00 | 0.00 | 0.00 | 99 | 1014.6 |
| 20260906104912 | 67 | 149 | 0.0 | 0.0 | 0.00 | 0.00 | 0.00 | 99 | 1015.0 |
| 20260906104411 | 67 | 149 | 0.0 | 0.0 | 0.00 | 0.00 | 0.00 | 99 | 1014.7 |
| 20260906103910 | 67 | 147 | 0.0 | 0.0 | 0.00 | 0.00 | 0.00 | 99 | 1014.5 |
| 20260906103408 | 67 | 149 | 0.0 | 0.0 | 0.00 | 0.00 | 0.00 | 99 | 1014.2 |
| 20260906102904 | 67 | 150 | 0.0 | 0.0 | 0.00 | 0.00 | 0.00 | 99 | 1014.5 |
| 20260906102403 | 67 | 148 | 0.0 | 0.0 | 0.00 | 0.00 | 0.00 | 99 | 1014.5 |
| 20260906101858 | 67 | 150 | 0.0 | 0.0 | 0.00 | 0.00 | 0.00 | 99 | 1014.5 |
| 20260906101353 | 67 | 147 | 0.0 | 0.0 | 0.00 | 0.00 | 0.00 | 99 | 1014.5 |
| 20260906100849 | 67 | 147 | 0.0 | 0.0 | 0.00 | 0.00 | 0.00 | 99 | 1014.5 |
| 20260906100348 | 67 | 149 | 0.0 | 0.0 | 0.00 | 0.00 | 0.00 | 99 | 1014.5 |
| 20260906095843 | 67 | 149 | 0.0 | 0.0 | 0.00 | 0.00 | 0.00 | 99 | 1014.5 |
| 20260906095339 | 67 | 147 | 0.0 | 0.0 | 0.00 | 0.00 | 0.00 | 99 | 1014.3 |
| 20260906094838 | 67 | 149 | 0.0 | 0.0 | 0.00 | 0.00 | 0.00 | 99 | 1014.2 |
| 20260906094333 | 67 | 148 | 0.0 | 0.0 | 0.00 | 0.00 | 0.00 | 99 | 1014.3 |
| 20260906093829 | 66 | 147 | 0.0 | 0.0 | 0.00 | 0.00 | 0.00 | 99 | 1014.1 |
| 20260906093325 | 66 | 147 | 0.0 | 0.0 | 0.00 | 0.00 | 0.00 | 99 | 1014.5 |
| 20260906092819 | 66 | 145 | 0.0 | 0.0 | 0.00 | 0.00 | 0.00 | 99 | 1014.4 |
| 20260906092314 | 66 | 146 | 0.0 | 0.0 | 0.00 | 0.00 | 0.00 | 99 | 1014.3 |
| 20260906091809 | 66 | 143 | 0.0 | 0.0 | 0.00 | 0.00 | 0.00 | 99 | 1014.1 |
| 20260906091306 | 66 | 147 | 0.0 | 0.0 | 0.00 | 0.00 | 0.00 | 99 | 1014.1 |
| 20260906090802 | 67 | 149 | 0.0 | 0.0 | 0.00 | 0.00 | 0.00 | 99 | 1014.3 |
| 20260906090301 | 67 | 147 | 0.0 | 0.0 | 0.00 | 0.00 | 0.00 | 99 | 1014.3 |
| 20260906085801 | 67 | 152 | 0.0 | 0.0 | 0.00 | 0.00 | 0.00 | 99 | 1014.2 |
| 20260906085259 | 67 | 173 | 0.0 | 0.0 | 0.00 | 0.00 | 0.00 | 99 | 1014.2 |
| 20260906084754 | 67 | 146 | 0.0 | 0.0 | 0.00 | 0.00 | 0.00 | 99 | 1014.0 |
| 20260906084248 | 67 | 147 | 0.0 | 0.0 | 0.00 | 0.00 | 0.00 | 99 | 1014.0 |
| 20260906083743 | 67 | 147 | 0.0 | 0.0 | 0.00 | 0.00 | 0.00 | 99 | 1014.1 |
| 20260906083239 | 67 | 147 | 0.0 | 0.0 | 0.00 | 0.00 | 0.00 | 99 | 1014.1 |
| 20260906082734 | 67 | 147 | 0.0 | 0.0 | 0.00 | 0.00 | 0.00 | 99 | 1014.2 |
| 20260906082229 | 67 | 147 | 0.0 | 0.0 | 0.00 | 0.00 | 0.00 | 99 | 1014.1 |
| 20260906081725 | 68 | 172 | 0.0 | 0.0 | 0.00 | 0.00 | 0.00 | 99 | 1014.2 |
| 20260906081220 | 68 | 147 | 0.0 | 0.0 | 0.00 | 0.00 | 0.00 | 99 | 1014.3 |
| 20260906080716 | 68 | 147 | 0.0 | 0.0 | 0.00 | 0.00 | 0.00 | 99 | 1014.1 |
| 20260906080212 | 68 | 149 | 0.0 | 0.0 | 0.00 | 0.00 | 0.00 | 99 | 1014.2 |
| 20260906075706 | 68 | 147 | 0.0 | 0.0 | 0.00 | 0.00 | 0.00 | 99 | 1014.3 |
| 20260906075201 | 68 | 147 | 0.0 | 0.0 | 0.00 | 0.00 | 0.00 | 99 | 1014.4 |
| 20260906074656 | 69 | 147 | 0.0 | 0.0 | 0.00 | 0.00 | 0.00 | 99 | 1014.2 |
| 20260906074155 | 69 | 147 | 0.0 | 0.0 | 0.00 | 0.00 | 0.00 | 99 | 1014.5 |
| 20260906073650 | 69 | 148 | 0.0 | 0.0 | 0.00 | 0.00 | 0.00 | 99 | 1014.3 |
| 20260906073145 | 69 | 148 | 0.0 | 0.0 | 0.00 | 0.00 | 0.00 | 98 | 1014.4 |
| 20260906072641 | 69 | 147 | 0.0 | 0.0 | 0.00 | 0.00 | 0.00 | 98 | 1014.3 |
| 20260906072136 | 69 | 147 | 0.0 | 0.0 | 0.00 | 0.00 | 0.00 | 98 | 1014.5 |
| 20260906071633 | 69 | 147 | 0.0 | 0.0 | 0.00 | 0.00 | 0.00 | 98 | 1014.4 |
| 20260906071132 | 69 | 147 | 0.0 | 0.0 | 0.00 | 0.00 | 0.00 | 98 | 1014.5 |
| 20260906070629 | 69 | 147 | 0.0 | 0.0 | 0.00 | 0.00 | 0.00 | 98 | 1014.6 |
| 20260906070125 | 69 | 147 | 0.0 | 0.0 | 0.00 | 0.00 | 0.00 | 98 | 1014.4 |
| 20260906065624 | 69 | 152 | 0.0 | 0.0 | 0.00 | 0.00 | 0.00 | 98 | 1014.5 |
| 20260906065120 | 69 | 149 | 0.0 | 0.0 | 0.00 | 0.00 | 0.00 | 97 | 1014.8 |
| 20260906064615 | 69 | 147 | 0.0 | 0.0 | 0.00 | 0.00 | 0.00 | 97 | 1014.5 |
| 20260906064110 | 69 | 147 | 0.0 | 0.0 | 0.00 | 0.00 | 0.00 | 97 | 1014.4 |
| 20260906063605 | 69 | 146 | 0.0 | 0.0 | 0.00 | 0.00 | 0.00 | 96 | 1014.3 |
| 20260906063101 | 70 | 147 | 0.0 | 0.0 | 0.00 | 0.00 | 0.00 | 96 | 1014.3 |
| 20260906062556 | 70 | 147 | 0.0 | 0.0 | 0.00 | 0.00 | 0.00 | 95 | 1014.3 |
| 20260906062055 | 70 | 150 | 0.0 | 0.0 | 0.00 | 0.00 | 0.00 | 95 | 1014.3 |
| 20260906061552 | 70 | 146 | 0.0 | 0.0 | 0.00 | 0.00 | 0.00 | 95 | 1014.4 |
| 20260906061051 | 71 | 148 | 0.0 | 0.0 | 0.00 | 0.00 | 0.00 | 94 | 1014.5 |
| 20260906060548 | 71 | 147 | 0.0 | 0.9 | 0.00 | 0.00 | 0.00 | 94 | 1014.7 |
| 20260906060044 | 71 | 147 | 0.9 | 0.9 | 0.00 | 0.00 | 0.00 | 94 | 1014.4 |
| 20260906055540 | 71 | 149 | 0.9 | 0.9 | 0.00 | 0.00 | 0.00 | 94 | 1014.3 |
| 20260906055035 | 71 | 147 | 0.0 | 0.9 | 0.00 | 0.00 | 0.00 | 94 | 1014.3 |
| 20260906054530 | 71 | 147 | 0.9 | 1.7 | 0.00 | 0.00 | 0.00 | 93 | 1014.2 |
| 20260906054025 | 71 | 147 | 0.9 | 0.9 | 0.00 | 0.00 | 0.00 | 93 | 1014.3 |
| 20260906053522 | 71 | 147 | 0.0 | 0.9 | 0.00 | 0.00 | 0.00 | 93 | 1014.0 |
| 20260906053017 | 71 | 147 | 0.0 | 2.6 | 0.00 | 0.00 | 0.00 | 93 | 1014.2 |
| 20260906052513 | 71 | 147 | 0.0 | 1.7 | 0.00 | 0.00 | 0.00 | 93 | 1014.2 |
| 20260906052010 | 72 | 147 | 0.0 | 0.9 | 0.00 | 0.00 | 0.00 | 92 | 1014.0 |
| 20260906051505 | 72 | 140 | 0.9 | 0.9 | 0.00 | 0.00 | 0.00 | 93 | 1014.0 |
| 20260906051000 | 71 | 148 | 0.0 | 1.7 | 0.00 | 0.00 | 0.00 | 93 | 1014.1 |
| 20260906050500 | 71 | 147 | 1.7 | 1.7 | 0.00 | 0.00 | 0.00 | 93 | 1014.2 |
| 20260906045954 | 71 | 147 | 0.0 | 1.7 | 0.00 | 0.01 | 0.01 | 93 | 1013.9 |
| 20260906045453 | 72 | 150 | 1.7 | 2.6 | 0.00 | 0.01 | 0.01 | 93 | 1014.0 |
| 20260906044949 | 72 | 148 | 0.9 | 1.7 | 0.00 | 0.01 | 0.01 | 93 | 1013.9 |
| 20260906044444 | 72 | 149 | 0.9 | 0.9 | 0.00 | 0.01 | 0.01 | 92 | 1013.9 |
| 20260906043940 | 72 | 147 | 0.9 | 1.7 | 0.00 | 0.01 | 0.01 | 92 | 1013.7 |
| 20260906043435 | 72 | 147 | 0.9 | 1.7 | 0.00 | 0.01 | 0.01 | 92 | 1013.9 |
| 20260906042931 | 72 | 150 | 0.9 | 0.9 | 0.00 | 0.01 | 0.01 | 92 | 1013.7 |
| 20260906042430 | 72 | 149 | 0.0 | 1.7 | 0.00 | 0.01 | 0.01 | 92 | 1013.6 |
| 20260906041925 | 72 | 150 | 0.9 | 1.7 | 0.00 | 0.01 | 0.01 | 92 | 1013.8 |
| 20260906041421 | 72 | 147 | 0.0 | 0.9 | 0.00 | 0.01 | 0.01 | 92 | 1013.7 |
| 20260906040920 | 72 | 149 | 0.0 | 1.7 | 0.00 | 0.01 | 0.01 | 92 | 1013.7 |
| 20260906040416 | 72 | 145 | 0.0 | 1.7 | 0.00 | 0.01 | 0.01 | 92 | 1013.3 |
| 20260906035911 | 72 | 148 | 0.9 | 0.9 | 0.00 | 0.01 | 0.01 | 92 | 1013.5 |
| 20260906035406 | 72 | 148 | 0.0 | 0.9 | 0.00 | 0.01 | 0.01 | 91 | 1013.4 |
| 20260906034901 | 72 | 154 | 0.9 | 2.6 | 0.00 | 0.01 | 0.01 | 91 | 1013.4 |
| 20260906034356 | 72 | 148 | 0.9 | 1.7 | 0.00 | 0.01 | 0.01 | 91 | 1013.4 |
| 20260906033852 | 72 | 147 | 1.7 | 2.6 | 0.00 | 0.01 | 0.01 | 91 | 1013.3 |
| 20260906033351 | 72 | 147 | 0.9 | 2.6 | 0.00 | 0.01 | 0.01 | 90 | 1013.3 |
| 20260906032848 | 72 | 140 | 6.1 | 7.0 | 0.00 | 0.01 | 0.01 | 90 | 1013.3 |
| 20260906032343 | 72 | 145 | 1.7 | 4.3 | 0.00 | 0.01 | 0.01 | 90 | 1013.1 |
| 20260906031838 | 72 | 153 | 2.6 | 4.3 | 0.00 | 0.01 | 0.01 | 89 | 1013.1 |
| 20260906031333 | 73 | 149 | 0.9 | 1.7 | 0.00 | 0.01 | 0.01 | 89 | 1013.2 |
| 20260906030833 | 73 | 151 | 0.0 | 1.7 | 0.00 | 0.01 | 0.01 | 89 | 1013.3 |
| 20260906030329 | 73 | 147 | 1.7 | 2.6 | 0.00 | 0.01 | 0.01 | 89 | 1013.2 |
| 20260906025823 | 73 | 149 | 2.6 | 2.6 | 0.00 | 0.01 | 0.01 | 89 | 1013.2 |
| 20260906025317 | 73 | 152 | 2.6 | 7.0 | 0.00 | 0.01 | 0.01 | 89 | 1013.0 |
| 20260906024816 | 73 | 147 | 0.9 | 6.1 | 0.00 | 0.01 | 0.01 | 89 | 1013.4 |
| 20260906024315 | 73 | 145 | 3.5 | 6.1 | 0.00 | 0.01 | 0.01 | 89 | 1013.3 |
| 20260906023811 | 73 | 151 | 0.9 | 5.2 | 0.00 | 0.01 | 0.01 | 89 | 1013.3 |
| 20260906023306 | 73 | 143 | 1.7 | 5.2 | 0.00 | 0.01 | 0.01 | 89 | 1013.4 |
| 20260906022802 | 73 | 149 | 3.5 | 4.3 | 0.00 | 0.01 | 0.01 | 89 | 1013.4 |
| 20260906022257 | 73 | 186 | 2.6 | 4.3 | 0.00 | 0.01 | 0.01 | 89 | 1013.1 |
| 20260906021753 | 73 | 133 | 2.6 | 4.3 | 0.00 | 0.01 | 0.01 | 89 | 1013.2 |
| 20260906021252 | 73 | 149 | 1.7 | 1.7 | 0.00 | 0.01 | 0.01 | 89 | 1013.2 |
| 20260906020747 | 73 | 152 | 0.9 | 5.2 | 0.00 | 0.01 | 0.01 | 89 | 1012.8 |
| 20260906020247 | 73 | 142 | 1.7 | 6.1 | 0.00 | 0.01 | 0.01 | 89 | 1013.0 |
| 20260906015741 | 73 | 150 | 4.3 | 6.1 | 0.00 | 0.01 | 0.01 | 89 | 1013.3 |
| 20260906015239 | 72 | 141 | 1.7 | 2.6 | 0.00 | 0.01 | 0.01 | 90 | 1013.3 |
| 20260906014734 | 73 | 147 | 1.7 | 2.6 | 0.00 | 0.01 | 0.01 | 91 | 1013.5 |
| 20260906014230 | 73 | 152 | 0.9 | 2.6 | 0.00 | 0.01 | 0.01 | 91 | 1013.1 |
| 20260906013726 | 73 | 145 | 0.9 | 2.6 | 0.00 | 0.01 | 0.01 | 91 | 1013.2 |
| 20260906013226 | 73 | 135 | 2.6 | 5.2 | 0.00 | 0.01 | 0.01 | 90 | 1013.2 |
| 20260906012721 | 73 | 149 | 2.6 | 4.3 | 0.00 | 0.01 | 0.01 | 90 | 1013.6 |
| 20260906012216 | 73 | 150 | 1.7 | 7.0 | 0.00 | 0.01 | 0.01 | 89 | 1013.3 |
| 20260906011711 | 73 | 147 | 0.0 | 1.7 | 0.00 | 0.01 | 0.01 | 89 | 1013.1 |
| 20260906011206 | 73 | 149 | 1.7 | 2.6 | 0.00 | 0.01 | 0.01 | 89 | 1013.3 |
| 20260906010701 | 73 | 148 | 1.7 | 4.3 | 0.00 | 0.01 | 0.01 | 88 | 1013.1 |
| 20260906010158 | 73 | 148 | 4.3 | 7.0 | 0.00 | 0.01 | 0.01 | 88 | 1013.2 |
| 20260906005657 | 73 | 145 | 0.9 | 4.3 | 0.00 | 0.01 | 0.01 | 88 | 1013.0 |
| 20260906005156 | 73 | 147 | 0.9 | 2.6 | 0.00 | 0.01 | 0.01 | 89 | 1013.2 |
| 20260906004655 | 73 | 149 | 0.9 | 4.3 | 0.00 | 0.01 | 0.01 | 89 | 1013.2 |
| 20260906004151 | 73 | 133 | 2.6 | 2.6 | 0.00 | 0.01 | 0.01 | 89 | 1013.2 |
| 20260906003646 | 73 | 149 | 2.6 | 2.6 | 0.00 | 0.01 | 0.01 | 90 | 1013.2 |
| 20260906003142 | 73 | 147 | 1.7 | 2.6 | 0.00 | 0.01 | 0.01 | 90 | 1013.1 |
| 20260906002636 | 73 | 145 | 2.6 | 4.3 | 0.00 | 0.01 | 0.01 | 90 | 1012.9 |
| 20260906002131 | 73 | 145 | 2.6 | 2.6 | 0.00 | 0.01 | 0.01 | 90 | 1012.8 |
| 20260906001626 | 73 | 145 | 1.7 | 7.0 | 0.00 | 0.01 | 0.01 | 90 | 1012.8 |
| 20260906001126 | 73 | 145 | 2.6 | 4.3 | 0.00 | 0.01 | 0.01 | 90 | 1012.7 |
| 20260906000622 | 73 | 131 | 3.5 | 8.7 | 0.00 | 0.01 | 0.01 | 89 | 1012.6 |
| 20260906000118 | 74 | 144 | 0.9 | 2.6 | 0.00 | 0.01 | 0.01 | 89 | 1012.4 |
| 20260905235616 | 74 | 143 | 2.6 | 2.6 | 0.00 | 0.01 | 0.01 | 88 | 1012.2 |
| 20260905235111 | 75 | 147 | 1.7 | 4.3 | 0.00 | 0.01 | 0.01 | 87 | 1012.3 |
| 20260905234607 | 75 | 145 | 2.6 | 4.3 | 0.00 | 0.01 | 0.01 | 86 | 1012.4 |
| 20260905234102 | 76 | 147 | 2.6 | 4.3 | 0.00 | 0.01 | 0.01 | 86 | 1012.6 |
| 20260905233602 | 76 | 143 | 0.9 | 1.7 | 0.00 | 0.01 | 0.01 | 85 | 1012.3 |
| 20260905233056 | 77 | 141 | 2.6 | 7.8 | 0.00 | 0.01 | 0.01 | 84 | 1012.1 |
| 20260905232552 | 77 | 143 | 4.3 | 5.2 | 0.00 | 0.01 | 0.01 | 84 | 1012.1 |
| 20260905232048 | 77 | 145 | 2.6 | 4.3 | 0.00 | 0.01 | 0.01 | 84 | 1012.1 |